Simultaneous Nadir Overpasses (SNOs) Predictions

Prediction of SNOs over PacNW region [( 10.00, 139.50) to ( 22.70, 165.60)] between AQUA and NPP Satellites:

Table of predicted SNOs over PacNW region for the next 30.0 days since TLE Epoch: 6/5/2021
Index Date (AQUA) Time (AQUA) AQUA Lat,Lon Date (NPP) Time (NPP) NPP Lat,Lon Distance(km) Time Diff (sec)
1 06/07/2021 03:31:34 22.68, 147.53 06/07/2021 03:28:04 26.45, 144.81 500.96 210
2 06/12/2021 15:59:11 22.59, 147.48 06/12/2021 16:01:32 23.25, 144.58 306.09 141
3 06/20/2021 15:09:43 22.62, 159.85 06/20/2021 15:10:53 23.18, 157.24 275.01 70
4 06/23/2021 03:31:33 22.68, 147.53 06/23/2021 03:28:03 25.80, 144.96 434.33 210
5 06/28/2021 15:59:08 22.60, 147.49 06/28/2021 16:01:41 23.25, 144.56 309.45 153
